TimeMDT,TemperatureF,Dew PointF,Humidity,Sea Level PressureIn,VisibilityMPH,Wind Direction,Wind SpeedMPH,Gust SpeedMPH,PrecipitationIn,Events,Conditions,WindDirDegrees,DateUTC
12:53 AM,59.0,32.0,36,29.92,10.0,SW,11.5,-,N/A,,Clear,220,2012-09-19 06:53:00
1:53 AM,57.9,30.9,36,29.91,10.0,SW,13.8,-,N/A,,Clear,230,2012-09-19 07:53:00
2:53 AM,59.0,30.9,35,29.89,10.0,SW,13.8,-,N/A,,Clear,230,2012-09-19 08:53:00
3:53 AM,55.9,32.0,40,29.89,10.0,WSW,13.8,-,N/A,,Clear,240,2012-09-19 09:53:00
4:53 AM,55.9,33.1,42,29.90,10.0,WSW,16.1,-,N/A,,Clear,250,2012-09-19 10:53:00
5:53 AM,55.0,33.1,43,29.92,10.0,WSW,12.7,-,N/A,,Clear,250,2012-09-19 11:53:00
6:53 AM,55.9,32.0,40,29.95,10.0,West,13.8,-,N/A,,Clear,260,2012-09-19 12:53:00
7:53 AM,59.0,32.0,36,29.97,10.0,West,17.3,-,N/A,,Clear,280,2012-09-19 13:53:00
8:53 AM,64.0,32.0,30,29.99,10.0,West,16.1,-,N/A,,Clear,280,2012-09-19 14:53:00
9:53 AM,72.0,30.0,21,30.00,9.0,NW,17.3,-,N/A,,Clear,320,2012-09-19 15:53:00
10:53 AM,77.0,28.9,17,30.00,10.0,NNW,19.6,27.6,N/A,,Clear,340,2012-09-19 16:53:00
11:53 AM,79.0,28.0,15,30.01,10.0,North,19.6,-,N/A,,Clear,10,2012-09-19 17:53:00
12:53 PM,80.1,28.0,15,30.01,10.0,North,19.6,28.8,N/A,,Clear,10,2012-09-19 18:53:00
1:53 PM,81.0,28.0,14,29.99,10.0,North,20.7,26.5,N/A,,Clear,10,2012-09-19 19:53:00
2:53 PM,79.0,28.0,15,29.99,10.0,North,15.0,-,N/A,,Clear,10,2012-09-19 20:53:00
3:53 PM,79.0,27.0,15,29.99,10.0,North,8.1,19.6,N/A,,Clear,10,2012-09-19 21:53:00
4:53 PM,77.0,27.0,16,30.00,10.0,Variable,5.8,-,N/A,,Clear,0,2012-09-19 22:53:00
5:53 PM,75.9,27.0,16,30.00,10.0,NNE,6.9,-,N/A,,Clear,20,2012-09-19 23:53:00
7:53 PM,63.0,28.0,27,30.04,10.0,East,6.9,-,N/A,,Clear,90,2012-09-20 01:53:00
8:53 PM,61.0,28.0,29,30.05,10.0,ESE,6.9,-,N/A,,Clear,110,2012-09-20 02:53:00
9:53 PM,60.1,28.9,31,30.04,10.0,ESE,5.8,-,N/A,,Clear,120,2012-09-20 03:53:00
10:53 PM,57.9,30.0,35,30.04,10.0,SSE,8.1,-,N/A,,Clear,150,2012-09-20 04:53:00
11:53 PM,55.0,30.0,38,30.05,10.0,SSE,5.8,-,N/A,,Clear,150,2012-09-20 05:53:00